NOAA 16 DEB, 41141

Orbit data source: Space-Track

NOAA 16 DEB, 41141 is space debris in SSO originally from a launch on Thu, 21 Sep 2000 UTC launched from the Air Force Western Test Range (AFWTR). Debris objects in space refer to the collection of defunct objects orbiting the Earth. Examples of debris include non-operational satellites, rocket bodies, and fragments generated from explosions, collisions, or faulty payload assembly.

Loading next visibility...
Identifier
41141, 2000-055BY
Orbit
SSO
Country
Flag of USUS
Related business
Manufacturer
Unknown
Mission
Spacecraft
Bus & Motor
Unknown
Mass
Unknown
Launch date (UTC)
2000-09-21 (25 years ago)
Launch vehicle
Unknown
Launch site
Air Force Western Test Range (AFWTR)
Object type
Payload
Rocket body
Debris
Shape & HBR
Unknown shape, 0.1 m
Radar Cross Section
Small (<0.1 m²)

Expand to show TLE details & history
Last TLE update: 1 day ago

TLE from 1 day ago
0 NOAA 16 DEB
1 41141U 00055BY  25292.66090975  .00029196  00000-0  57083-2 0  9995
2 41141  98.9758 186.3267 0045328  20.3355 339.9636 14.62139004516902
Epoch: 2025-10-19T15:51Z
TLE epoch observation values (Epoch: 2025-10-19T15:51:42.602Z)
Latitude
-0.00002°
Longitude
-79.97518°
Altitude
659.166 km
Speed
7.544 km/s
True Right ascension
12h 25m 18s
True Declination
0° 00' 00"
Sunlit
Object was in daylight at epoch
Visualization orbit readout
Latitude
Unknown
Longitude
Unknown
Altitude
Unknown
Speed
Unknown
Apparent Right ascension
Unknown
Apparent Declination
Unknown
Sunlit
N/A
Visualization observer readout
Local Sidereal Time
11:40:53
Azimuth
Unknown
Elevation
Unknown
Doppler factor
Unknown
Orbital elements
Apogee altitude
715.4 km
Perigee altitude
651.383 km
Semi-major axis
7,061.528 km
Eccentricity
0.00453
Inclination
98.9758°
RAAN
186.3267°
Arg. of periapsis
20.3355°
True anomaly
339.78469°
Mean anomaly
339.9636°
Eccentric anomaly
339.87424°
Mean motion
3.65759 °/min
Orbital period
98.43 mins
BSTAR
0.0057083
Loading maneuver chart data...
Computing Atmospheric mass density...
Loading historical data...
Loading historical data...
Loading historical data...
Loading historical data...
Loading historical data...
Loading historical data...
Loading historical data...

Documentation

Showing up to 5 results
|